Location: *
(35.2348°S, 91.3916°E)
Time: 19:49:56
(UTC+00:00)

CZ-2D R/B - Pass Details

Date: 23 October 2019
Orbit: 792 x 845 km, 98.6° (Epoch: 22 November)

Event Time Altitude Azimuth Distance (km) Brightness Sun altitude
Exits shadow 18:31:26 20° 176° (S) 1,871 4.4 -41.6°
Drops below altitude 10° 18:33:07 10° 182° (S) 2,494 5.2 -41.5°
Sets 18:35:34 0° 187° (S) 3,438 6.1 -41.4°
